This is the latest recevied weather packets stored in our database for station/object KB3GVC-13. If no packets are shown the sender has not sent any weather packets the latest 10 day(s).
| Time | Temp. | Humidity | Pressure | Rain* | Wind** | Luminosity | Snow |
|---|---|---|---|---|---|---|---|
| 1777635149 | 7.22° C | 84% | 1016 hPa | 0 mm | - | - | - |
| 1777634845 | 6.67° C | 89% | 1016.1 hPa | 0 mm | - | - | - |
| 1777634542 | 6.11° C | 96% | 1015.9 hPa | 0 mm | - | - | - |
| 1777634239 | 5.56° C | 97% | 1016 hPa | 0 mm | - | - | - |
| 1777633935 | 5.56° C | 98% | 1015.9 hPa | 0 mm | - | - | - |
| 1777633633 | 5° C | 99% | 1015.8 hPa | 0 mm | - | - | - |
| 1777633331 | 5° C | 99% | 1016.2 hPa | 0 mm | - | - | - |
| 1777633028 | 4.44° C | 99% | 1016 hPa | 0 mm | - | - | - |
| 1777632725 | 3.89° C | 99% | 1015.8 hPa | 0 mm | - | - | - |
| 1777632420 | 3.89° C | 99% | 1015.9 hPa | 0 mm | - | - | - |
| 1777632118 | 3.89° C | 99% | 1015.6 hPa | 0 mm | - | - | - |
| 1777631815 | 3.33° C | 98% | 1015.8 hPa | 0 mm | - | - | - |
| 1777631513 | 3.33° C | 98% | 1015.8 hPa | 0 mm | - | - | - |
| 1777631210 | 3.33° C | 98% | 1015.7 hPa | 0 mm | - | - | - |
| 1777630908 | 3.33° C | 98% | 1015.7 hPa | 0 mm | - | - | - |
| 1777630608 | 3.33° C | 98% | 1015.5 hPa | 0 mm | - | - | - |
| 1777630305 | 3.33° C | 98% | 1015.7 hPa | 0 mm | - | - | - |
| 1777630003 | 3.33° C | 97% | 1015.6 hPa | 0 mm | - | - | - |
| 1777629701 | 3.33° C | 97% | 1015.8 hPa | 0 mm | - | - | - |
| 1777629397 | 3.33° C | 96% | 1015.4 hPa | 0 mm | - | - | - |
| 1777629093 | 3.33° C | 96% | 1015.5 hPa | 0 mm | - | - | - |
| 1777628790 | 2.78° C | 95% | 1015.5 hPa | 0 mm | - | - | - |
| 1777628486 | 3.33° C | 94% | 1015.5 hPa | 0 mm | - | - | - |
| 1777628182 | 3.33° C | 94% | 1015.5 hPa | 0 mm | - | - | - |
| 1777627878 | 3.89° C | 94% | 1015.5 hPa | 0 mm | - | - | - |
* Rain latest hour (hover to see other rain measurements)
** Current wind speed in m/s (hover to see current wind gust speed)